Location: La Junie
(44.7428°N, 2.1773°E)
Time: 20:20:35
(UTC+00:00)

Cosmos 1513 Rocket - Pass Details

Date: 15 May 2026
Orbit: 938 x 1008 km, 82.9° (Epoch: 6 June)

Event Time Altitude Azimuth Distance (km) Brightness Sun altitude
Exits shadow 21:15:00 14° 188° (S) 2,427 6.2 -17.4°
Maximum altitude 21:20:28 86° 278° (W) 971 4.5 -17.9°
Drops below altitude 10° 21:26:38 10° 7° (N) 2,686 7.5 -18.6°
Sets 21:29:07 0° 8° (N) 3,628 8.2 -18.8°
